Location: Newark
(41.9000°N, 12.4833°E)
Time: 05:51:38
(UTC+00:00)

Hubble Space Telescope - Visible Passes

Search period start: 20 March 2019 00:00
Search period end: 30 March 2019 00:00
Orbit: 537 x 540 km, 28.5° (Epoch: 18 March)

Date Brightness Start Highest point End Pass type
(mag) Time Alt. Az. Time Alt. Az. Time Alt. Az.
27 Mar 3.1 18:09:46 10° S 18:10:23 10° S 18:11:00 10° SSE visible
28 Mar 3.1 17:58:28 10° S 17:59:45 11° S 18:01:02 10° SSE visible
28 Mar 3.4 19:38:30 10° SSW 19:38:30 10° SSW 19:38:30 10° SSW visible
29 Mar 3.3 19:28:10 10° SSW 19:28:40 11° SSW 19:28:40 11° SSW visible
